map of NNT home
NNT - Airport
Location
City:  Nan, Nan, Thailand
ICAO:VTCN
IATA:NNT

Details
Type:Airport (Aerodrome, Airfield)
Latitude:1848'28"N (18.807914)
Longitude:10047'00"E (100.783419)
Datum:WGS 1984
Elevation:685 ft (209 m)
Variation:0.84W (WMM2015 magnetic declination)
0.00 annual change
Runways:1
Longest:6562 × 148 ft (2000 × 45 m), paved

Time
Time Zone:UTC+7
Local Time:

Weather
METAR:VTCN 180400Z 35004KT 9999 SCT025 SCT100 29/24 Q1009
TAF:VTCN 172300Z 1800/1824 2005KT 9999 BKN030
TEMPO 1803/1809 VRB15G25KT 4000 TSRA FEW020CB BKN030

Related Locations
Nearby:
Farthest:SJA: 12081 mi / 19442 km
San Juan de Marcona [San Juan de Marcona Airport], ICA, PE

Find:

   beyond  
but within

Other Information
Maps:
NOTAMs:
Links:
Sources:

  
flag of Thailand   

Sectional Chart

Flight Planning
at skyvector.com

Satellite Image

Google Maps Satellite view

 

Copyright © 2004-2017 Karl L. Swartz. All rights reserved.
The Great Circle Mapper name and logo are trademarks of the Great Circle Mapper.
All other trademarks mentioned herein belong to their respective owners.
Please see credits for attibutions and further copyright information.

  Follow gcmap on Facebook Follow gcmap on Twitter Follow gcmap on Google+ GCmap on LinkedIn

hCard Microformat

Geo Microformat